Weather Roundup
Issued by NWS Chicago, IL

Home | Current Version | Previous Version | Graphics & Text | Print | Product List | Glossary On
Versions: 1 2 3 4 5 6 7 8 9 10 11 12 13 14 15 16 17 18 19 20 21 22 23 24 25 26 27 28 29 30 31 32 33 34 35 36 37 38 39 40 41 42 43 44 45 46 47 48 49 50
000
NZUS59 KLOT 281209
HRRLOT

CHICAGO AREA WEATHER ROUNDUP
NATIONAL WEATHER SERVICE CHICAGO/ROMEOVILLE IL
700 AM CDT WED JUN 28 2017

NOTE: "FAIR" INDICATES FEW OR NO CLOUDS BELOW 12,000 FEET WITH NO
SIGNIFICANT WEATHER AND/OR OBSTRUCTIONS TO VISIBILITY.

* THESE STATIONS ARE NOT UNDER NWS QUALITY CONTROL. THEY ALSO MAY NOT
  REPORT WEATHER SUCH AS PRECIPITATION OR FOG.

ILZ005-006-012>014-019>023-281300-
NORTHEAST ILLINOIS

CITY           SKY/WX    TMP DP  RH WIND       PRES   REMARKS
OHARE          CLOUDY    65  48  54 S12       29.97F
6HR MIN TEMP:  58; 6HR MAX TEMP:  65;

MIDWAY         CLOUDY    66  48  52 S13       29.98F
6HR MIN TEMP:  63; 6HR MAX TEMP:  66;

AURORA         CLOUDY    63  50  62 S17       29.98S
6HR MIN TEMP:  55; 6HR MAX TEMP:  63;

LANSING*       PTSUNNY   62  47  58 S13       30.01F
JOLIET*        CLOUDY    63  51  65 S6        29.99S
WAUKEGAN       CLOUDY    63  49  60 S12       29.96F
6HR MIN TEMP:  55; 6HR MAX TEMP:  63;

DUPAGE AIRPORT CLOUDY    61  52  72 S10       29.96F
6HR MIN TEMP:  55; 6HR MAX TEMP:  61;

WHEELING       CLOUDY    64  50  60 S10       29.98F
6HR MIN TEMP:  55; 6HR MAX TEMP:  64;

MORRIS*        CLOUDY    62  50  64 S13       29.98R
LEWIS AIRPORT* PTSUNNY   62  47  58 S14       29.99S
$$

WIZ051-052-058>065-066-070>072-281300-
SOUTHEAST WISCONSIN

CITY           SKY/WX    TMP DP  RH WIND       PRES   REMARKS
MILWAUKEE      CLOUDY    63  50  62 S10       29.95F
6HR MIN TEMP:  57; 6HR MAX TEMP:  63;

KENOSHA*       CLOUDY    62  49  62 S9        29.96F
RACINE*        CLOUDY    62  49  62 S10       29.98S
WAUKESHA       SUNNY     57  48  72 S9        29.95F
WEST BEND      CLOUDY    59  50  72 S6        29.94R
$$

INZ001>003-010>013-019-020-281300-
NORTHWEST INDIANA

CITY           SKY/WX    TMP DP  RH WIND       PRES   REMARKS
GARY*          CLOUDY    63  46  55 S10       30.02F
MICHIGAN CITY* NOT AVBL
RENSSELAER*    NOT AVBL
VALPARAISO     CLOUDY    61  50  67 S8        30.04F
$$

LMZ740>746-281300-
SOUTHERN LAKE MICHIGAN

STATION/POSITION TIME  SKY/WX   TEMP WIND        PRES    VSBY
                                AIR  DIR/SP/G
                 (UTC)          (F)  (DEG/KT/KT) (MB)    (MI)
HARRISON CRIB    1140            65  180/ 16/ 19   N/A
BURNHAM HARBOR   1200            65                N/A
CALUMET HARBOR   1142            65  170/ 11/ 14 1015.5F
BURNS HARBOR     1140            64  180/ 10/ 18 1016.9F
MICHIGAN CITY    1140            63  160/ 13/ 16   N/A
$$

ABBREVIATIONS USED IN REMARKS
   TC - TEMPERATURE IN CELSIUS
  WCI - WIND CHILL INDEX
   HX - HEAT INDEX
  VSB - VISIBILITY
$$



USA.gov is the U.S. government's official web portal to all federal, state and local government web resources and services.